CW8593 Weather Reports


Display with metric or nautical units.
time (UTC)temp
F
wind
direction
speed
MPH
gust
MPH
rain 1hr
in
rain 24hr
in
rain mn
in
humidity
%
barometer
mb
20171123142940 65 204 7.0 13.0 0.00 0.01 0.01 76 1015.7
20171123142040 64 196 7.0 17.0 0.00 0.01 0.01 77 1015.7
20171123141140 65 203 7.0 15.0 0.00 0.01 0.01 76 1015.8
20171123140240 65 206 7.0 15.0 0.00 0.01 0.01 76 1015.7
20171123135340 65 207 7.0 17.0 0.00 0.01 0.01 77 1015.8
20171123134440 65 206 7.0 14.0 0.00 0.01 0.01 76 1015.7
20171123133540 65 210 7.0 16.0 0.00 0.01 0.01 76 1015.8
20171123132640 65 209 6.0 15.0 0.00 0.01 0.01 75 1015.8
20171123131740 65 206 6.0 15.0 0.00 0.01 0.01 74 1015.8
20171123130840 65 214 6.0 12.0 0.00 0.01 0.01 74 1015.8
20171123125940 65 208 6.0 13.0 0.00 0.01 0.01 75 1015.8
20171123125040 65 218 6.0 13.0 0.00 0.01 0.01 75 1015.9
20171123124140 65 212 7.0 13.0 0.00 0.01 0.01 75 1016.0
20171123123240 65 218 7.0 15.0 0.00 0.01 0.01 74 1016.1
20171123122340 66 219 6.0 12.0 0.00 0.01 0.01 75 1016.2
20171123121440 65 210 7.0 13.0 0.00 0.01 0.01 75 1016.2
20171123120540 65 203 8.0 16.0 0.00 0.01 0.01 75 1016.3
20171123115640 65 203 7.0 17.0 0.00 0.01 0.01 76 1016.4
20171123114740 65 207 7.0 13.0 0.00 0.01 0.01 75 1016.5
20171123113840 65 202 4.0 15.0 0.00 0.01 0.01 74 1016.4
20171123112940 66 201 2.0 8.0 0.00 0.01 0.01 74 1016.6
20171123112040 65 103 2.0 5.0 0.00 0.01 0.01 73 1016.6
20171123111140 63 102 3.0 5.0 0.00 0.01 0.01 75 1016.7
20171123110240 62 105 3.0 7.0 0.00 0.01 0.01 77 1016.8
20171123105340 62 92 2.0 7.0 0.00 0.01 0.01 77 1016.8
20171123104440 62 327 0.0 4.0 0.00 0.01 0.01 77 1016.9
20171123103540 62 300 1.0 3.0 0.00 0.01 0.01 75 1017.1
20171123102640 62 296 1.0 4.0 0.00 0.01 0.01 78 1017.2
20171123101740 61 294 1.0 4.0 0.00 0.01 0.01 79 1017.2
20171123100840 60 293 0.0 3.0 0.00 0.01 0.01 80 1017.2
20171123095940 60 292 0.0 1.0 0.00 0.01 0.01 79 1017.2
20171123095039 59 292 0.0 3.0 0.00 0.01 0.01 80 1017.1
20171123094140 60 292 0.0 3.0 0.00 0.01 0.01 81 1016.9
20171123093239 60 0 0.0 0.0 0.00 0.01 0.01 79 1016.9
20171123092339 58 0 0.0 0.0 0.00 0.01 0.01 83 1016.9
20171123091439 57 0 0.0 0.0 0.00 0.01 0.01 85 1017.0
20171123090539 56 293 0.0 1.0 0.00 0.01 0.01 86 1017.0
20171123085639 56 0 0.0 0.0 0.00 0.01 0.01 86 1016.9
20171123084739 56 0 0.0 0.0 0.00 0.01 0.01 86 1016.7
20171123083839 56 0 0.0 0.0 0.00 0.01 0.01 87 1016.7
20171123082939 56 0 0.0 0.0 0.00 0.01 0.01 86 1016.8
20171123081139 55 292 0.0 2.0 0.00 0.01 0.01 87 1016.5
20171123080239 57 0 0.0 0.0 0.00 0.01 0.01 86 1016.5
20171123075339 56 0 0.0 0.0 0.00 0.01 0.01 89 1016.4
20171123074439 55 0 0.0 0.0 0.01 0.01 0.01 91 1016.3
20171123073539 54 0 0.0 0.0 0.01 0.01 0.01 92 1016.3
20171123072639 54 292 0.0 2.0 0.01 0.01 0.01 94 1016.2
20171123071739 53 292 0.0 1.0 0.01 0.01 0.01 93 1016.1
20171123070839 52 292 1.0 4.0 0.01 0.01 0.01 94 1016.1
20171123065939 54 0 0.0 0.0 0.01 0.01 0.01 93 1015.9
20171123065039 53 294 1.0 2.0 0.00 0.00 0.00 94 1015.8
20171123064139 52 293 0.0 3.0 0.00 0.00 0.00 94 1015.7
20171123063239 52 294 0.0 1.0 0.00 0.00 0.00 93 1015.7
20171123062339 52 0 0.0 0.0 0.00 0.00 0.00 92 1015.5
20171123061439 53 0 0.0 0.0 0.00 0.00 0.00 92 1015.4
20171123060539 53 0 0.0 0.0 0.00 0.00 0.00 92 1015.4
20171123055639 53 294 0.0 1.0 0.00 0.00 0.00 93 1015.3
20171123054739 53 0 0.0 0.0 0.00 0.00 0.00 93 1015.3
20171123053839 52 0 0.0 0.0 0.00 0.00 0.00 92 1015.2
20171123052939 52 294 1.0 3.0 0.00 0.00 0.00 92 1015.1
20171123052039 52 294 0.0 3.0 0.00 0.00 0.00 93 1015.0
20171123051140 52 294 2.0 2.0 0.00 0.00 0.00 92 1014.9
20171123050239 53 294 2.0 4.0 0.00 0.00 0.00 92 1015.0
20171123045339 53 293 1.0 3.0 0.00 0.00 0.00 92 1015.1
20171123044439 52 294 0.0 2.0 0.00 0.00 0.00 92 1014.9
20171123043539 53 0 0.0 0.0 0.00 0.00 0.00 91 1014.8
20171123042639 54 294 0.0 2.0 0.00 0.00 0.00 92 1014.8
20171123041739 54 293 1.0 4.0 0.00 0.00 0.00 90 1014.7
20171123040839 54 293 0.0 3.0 0.00 0.00 0.00 91 1014.9
20171123035939 54 294 1.0 4.0 0.00 0.00 0.00 89 1014.8
20171123035039 54 294 1.0 3.0 0.00 0.00 0.00 90 1014.9
20171123034139 54 294 2.0 3.0 0.00 0.00 0.00 92 1014.8
20171123033239 54 294 2.0 4.0 0.00 0.00 0.00 93 1014.7
20171123032339 53 293 1.0 4.0 0.00 0.00 0.00 92 1014.6
20171123031439 51 293 0.0 2.0 0.00 0.00 0.00 92 1014.5
20171123030539 52 293 0.0 2.0 0.00 0.00 0.00 90 1014.6
20171123025639 53 0 0.0 0.0 0.00 0.00 0.00 92 1014.6
20171123024739 53 294 0.0 2.0 0.00 0.00 0.00 90 1014.6
20171123023839 54 294 0.0 2.0 0.00 0.00 0.00 91 1014.7
20171123022939 53 294 0.0 2.0 0.00 0.00 0.00 91 1014.8
20171123022039 53 294 0.0 1.0 0.00 0.00 0.00 91 1014.9
20171123021139 52 294 0.0 2.0 0.00 0.00 0.00 90 1014.9
20171123020239 53 294 0.0 1.0 0.00 0.00 0.00 88 1014.9
20171123015339 56 293 1.0 4.0 0.00 0.00 0.00 87 1014.8
20171123014439 56 293 0.0 3.0 0.00 0.00 0.00 89 1014.9
20171123013539 54 294 0.0 2.0 0.00 0.00 0.00 90 1014.8
20171123012639 54 294 1.0 2.0 0.00 0.00 0.00 88 1014.7
20171123011739 54 294 1.0 3.0 0.00 0.00 0.00 90 1014.7
20171123010839 53 294 0.0 2.0 0.00 0.00 0.00 89 1014.6
20171123005939 53 0 0.0 0.0 0.00 0.00 0.00 88 1014.6
20171123005039 53 0 0.0 0.0 0.00 0.00 0.00 87 1014.6
20171123004139 54 0 0.0 0.0 0.00 0.00 0.00 88 1014.6
20171123003239 54 0 0.0 0.0 0.00 0.00 0.00 85 1014.6
20171123002339 56 294 1.0 2.0 0.00 0.00 0.00 85 1014.6
20171123001438 56 294 0.0 3.0 0.00 0.00 0.00 85 1014.8
20171123000540 55 0 0.0 0.0 0.00 0.00 0.00 87 1014.7
20171122235639 55 0 0.0 0.0 0.00 0.00 0.00 86 1014.7
20171122234739 56 0 0.0 0.0 0.00 0.00 0.00 86 1014.6
20171122233838 56 0 0.0 0.0 0.00 0.00 0.00 85 1014.8
20171122232938 56 294 0.0 1.0 0.00 0.00 0.00 86 1014.8
20171122232039 56 0 0.0 0.0 0.00 0.00 0.00 85 1014.7
20171122231138 56 294 0.0 2.0 0.00 0.00 0.00 85 1014.7
20171122230239 56 0 0.0 0.0 0.00 0.00 0.00 86 1014.7
20171122224438 55 294 0.0 1.0 0.00 0.00 0.00 87 1014.6
20171122223538 55 294 0.0 1.0 0.00 0.00 0.00 85 1014.7
20171122221738 57 290 1.0 6.0 0.00 0.00 0.00 84 1014.8
20171122220838 57 287 1.0 3.0 0.00 0.00 0.00 85 1014.8
20171122215938 57 287 1.0 3.0 0.00 0.00 0.00 85 1014.7
20171122214138 56 0 0.0 0.0 0.00 0.00 0.00 86 1014.7
20171122213238 56 288 2.0 3.0 0.00 0.00 0.00 85 1014.8
20171122212338 57 287 1.0 4.0 0.00 0.00 0.00 85 1014.6
20171122211438 57 287 1.0 3.0 0.00 0.00 0.00 85 1014.6
20171122210538 56 287 0.0 2.0 0.00 0.00 0.00 86 1014.6
20171122205638 56 0 0.0 0.0 0.00 0.00 0.00 86 1014.5
20171122204738 56 0 0.0 0.0 0.00 0.00 0.00 86 1014.5
20171122203838 57 287 2.0 4.0 0.00 0.00 0.00 85 1014.4
20171122202038 57 284 1.0 3.0 0.00 0.00 0.00 85 1014.4
20171122201138 57 258 0.0 3.0 0.00 0.00 0.00 86 1014.5
20171122200238 56 0 0.0 0.0 0.00 0.00 0.00 87 1014.3
20171122195338 56 0 0.0 0.0 0.00 0.00 0.00 87 1014.3
20171122194438 56 0 0.0 0.0 0.00 0.00 0.00 87 1014.3
20171122193538 55 0 0.0 0.0 0.00 0.00 0.00 87 1014.1
20171122192638 56 0 0.0 0.0 0.00 0.00 0.00 86 1014.1
20171122191738 56 0 0.0 0.0 0.00 0.00 0.00 86 1014.2
20171122190838 56 0 0.0 0.0 0.00 0.00 0.00 86 1014.2
20171122185938 57 0 0.0 0.0 0.00 0.00 0.00 85 1014.3
20171122185038 57 254 0.0 1.0 0.00 0.00 0.00 85 1014.4
20171122183238 57 254 1.0 2.0 0.00 0.00 0.00 86 1014.5
20171122182338 57 254 0.0 2.0 0.00 0.00 0.00 86 1014.4
20171122181438 57 254 1.0 2.0 0.00 0.00 0.00 85 1014.5
20171122180538 58 254 2.0 5.0 0.00 0.00 0.00 86 1014.4
20171122174738 57 190 1.0 3.0 0.00 0.00 0.00 86 1014.5
20171122173838 57 189 0.0 2.0 0.00 0.00 0.00 86 1014.4
20171122172938 57 189 0.0 2.0 0.00 0.00 0.00 85 1014.4
20171122172038 57 189 0.0 3.0 0.00 0.00 0.00 85 1014.4
20171122171138 58 189 0.0 2.0 0.00 0.00 0.00 84 1014.4
20171122170238 58 189 0.0 1.0 0.00 0.00 0.00 84 1014.4
20171122165338 59 189 0.0 2.0 0.00 0.00 0.00 84 1014.2
20171122164438 59 189 0.0 2.0 0.00 0.00 0.00 83 1014.1
20171122162638 61 189 1.0 3.0 0.00 0.00 0.00 81 1013.9
20171122161738 61 189 1.0 4.0 0.00 0.00 0.00 81 1014.0
20171122160838 61 188 2.0 4.0 0.00 0.00 0.00 80 1013.9
20171122155938 62 191 2.0 6.0 0.00 0.00 0.00 79 1013.9
20171122155038 62 210 2.0 6.0 0.00 0.00 0.00 78 1014.0
20171122154138 62 200 2.0 6.0 0.00 0.00 0.00 77 1014.0
20171122153238 63 202 2.0 8.0 0.00 0.00 0.00 76 1014.0
20171122152338 64 209 2.0 8.0 0.00 0.00 0.00 75 1014.1
20171122150538 63 231 2.0 6.0 0.00 0.00 0.00 76 1014.1
20171122144738 63 219 3.0 8.0 0.00 0.00 0.00 75 1014.1
20171122143838 64 215 5.0 10.0 0.00 0.00 0.00 75 1014.0